• In Belgien
  • Länderverzeichnis
  • Für 7 Tage
  • Wassertemperatur
  • Satellitenkarten
  • Wetterkarte
  • Widgets
  • user-avatar
    Anmelden

    Stündliche Wetter Knokke-Heist

    Heute, 24 Februar, Samstag

    Zeit Temperatur Niederschläge Wind Luftdruck Luftfeuchtigkeit
    00:00 -6°C° 0 mm 8 m/S 765 mmHg 46%
    01:00 -6°C° 0 mm 8 m/S 765 mmHg 43%
    02:00 -6°C° 0 mm 8 m/S 765 mmHg 41%
    03:00 -6°C° 0 mm 8 m/S 765 mmHg 39%
    04:00 -6°C° 0 mm 8 m/S 765 mmHg 37%
    05:00 -6°C° 0 mm 8 m/S 765 mmHg 36%
    06:00 -6°C° 0 mm 9 m/S 765 mmHg 34%
    07:00 -5°C° 0 mm 9 m/S 766 mmHg 31%
    08:00 -4°C° 0 mm 9 m/S 766 mmHg 29%
    09:00 -3°C° 0 mm 10 m/S 766 mmHg 26%
    10:00 -2°C° 0 mm 10 m/S 766 mmHg 27%
    11:00 0°C° 0 mm 10 m/S 766 mmHg 28%
    12:00 +1°C° 0 mm 10 m/S 766 mmHg 29%
    13:00 +2°C° 0 mm 10 m/S 766 mmHg 32%
    14:00 +2°C° 0 mm 10 m/S 766 mmHg 35%
    15:00 +2°C° 0 mm 10 m/S 766 mmHg 38%
    16:00 +1°C° 0 mm 10 m/S 766 mmHg 43%
    17:00 0°C° 0 mm 10 m/S 767 mmHg 48%
    18:00 -3°C° 0 mm 10 m/S 767 mmHg 53%
    19:00 -3°C° 0 mm 10 m/S 767 mmHg 52%
    20:00 -4°C° 0 mm 10 m/S 768 mmHg 51%
    21:00 -4°C° 0 mm 10 m/S 768 mmHg 50%
    22:00 -5°C° 0 mm 10 m/S 768 mmHg 50%
    23:00 -5°C° 0 mm 10 m/S 769 mmHg 49%

    Morgen, 25 Februar, Sonntag

    Zeit Temperatur Niederschläge Wind Luftdruck Luftfeuchtigkeit
    00:00 -5°C° 0 mm 9 m/S 769 mmHg 49%
    01:00 -6°C° 0 mm 9 m/S 769 mmHg 47%
    02:00 -6°C° 0 mm 9 m/S 769 mmHg 46%
    03:00 -6°C° 0 mm 9 m/S 769 mmHg 45%
    04:00 -6°C° 0 mm 9 m/S 770 mmHg 45%
    05:00 -8°C° 0 mm 9 m/S 770 mmHg 44%
    06:00 -8°C° 0 mm 9 m/S 770 mmHg 44%
    07:00 -6°C° 0 mm 9 m/S 770 mmHg 40%
    08:00 -7°C° 0 mm 10 m/S 771 mmHg 37%
    09:00 -5°C° 0 mm 10 m/S 771 mmHg 33%
    10:00 -4°C° 0 mm 10 m/S 771 mmHg 30%
    11:00 -4°C° 0 mm 9 m/S 771 mmHg 27%
    12:00 -3°C° 0 mm 9 m/S 771 mmHg 24%
    13:00 -3°C° 0 mm 9 m/S 771 mmHg 25%
    14:00 -3°C° 0 mm 9 m/S 771 mmHg 26%
    15:00 -3°C° 0 mm 9 m/S 771 mmHg 27%
    16:00 -3°C° 0 mm 9 m/S 771 mmHg 30%
    17:00 -4°C° 0 mm 9 m/S 771 mmHg 34%
    18:00 -5°C° 0 mm 9 m/S 771 mmHg 37%
    19:00 -6°C° 0 mm 9 m/S 772 mmHg 40%
    20:00 -6°C° 0 mm 9 m/S 772 mmHg 43%
    21:00 -6°C° 0 mm 9 m/S 772 mmHg 46%
    22:00 -6°C° 0 mm 8 m/S 772 mmHg 49%
    23:00 -6°C° 0 mm 8 m/S 772 mmHg 53%

    übermorgen, 26 Februar, Montag

    Zeit Temperatur Niederschläge Wind Luftdruck Luftfeuchtigkeit
    00:00 -6°C° 0 mm 8 m/S 772 mmHg 57%
    01:00 -7°C° 0 mm 8 m/S 772 mmHg 58%
    02:00 -7°C° 0 mm 8 m/S 772 mmHg 59%
    03:00 -7°C° 0 mm 8 m/S 772 mmHg 61%
    04:00 -7°C° 0 mm 8 m/S 772 mmHg 61%
    05:00 -8°C° 0 mm 9 m/S 773 mmHg 61%
    06:00 -8°C° 0 mm 9 m/S 773 mmHg 62%
    07:00 -8°C° 0 mm 9 m/S 773 mmHg 57%
    08:00 -7°C° 0 mm 10 m/S 773 mmHg 52%
    09:00 -7°C° 0 mm 10 m/S 773 mmHg 47%
    10:00 -5°C° 0 mm 10 m/S 772 mmHg 44%
    11:00 -5°C° 0 mm 10 m/S 772 mmHg 40%
    12:00 -4°C° 0 mm 10 m/S 772 mmHg 37%
    13:00 -4°C° 0 mm 10 m/S 771 mmHg 38%
    14:00 -4°C° 0 mm 9 m/S 771 mmHg 39%
    15:00 -4°C° 0 mm 9 m/S 771 mmHg 40%
    16:00 -5°C° 0 mm 9 m/S 770 mmHg 42%
    17:00 -5°C° 0 mm 8 m/S 770 mmHg 45%
    18:00 -6°C° 0 mm 8 m/S 770 mmHg 48%
    19:00 -6°C° 0 mm 8 m/S 770 mmHg 50%
    20:00 -6°C° 0 mm 8 m/S 770 mmHg 52%
    21:00 -6°C° 0 mm 8 m/S 770 mmHg 54%
    22:00 -7°C° 0 mm 8 m/S 769 mmHg 57%
    23:00 -7°C° 0 mm 7 m/S 769 mmHg 59%

    27 Februar, Dienstag

    Zeit Temperatur Niederschläge Wind Luftdruck Luftfeuchtigkeit
    00:00 -7°C° 0 mm 7 m/S 769 mmHg 61%
    01:00 -7°C° 0 mm 7 m/S 768 mmHg 63%
    02:00 -7°C° 0 mm 7 m/S 768 mmHg 64%
    03:00 -7°C° 0 mm 7 m/S 768 mmHg 65%
    04:00 -7°C° 0 mm 7 m/S 767 mmHg 64%
    05:00 -8°C° 0 mm 7 m/S 767 mmHg 63%
    06:00 -8°C° 0 mm 7 m/S 767 mmHg 61%
    07:00 -7°C° 0 mm 7 m/S 767 mmHg 56%
    08:00 -7°C° 0 mm 7 m/S 767 mmHg 51%
    09:00 -6°C° 0 mm 8 m/S 767 mmHg 46%
    10:00 -4°C° 0 mm 7 m/S 767 mmHg 43%
    11:00 -4°C° 0 mm 7 m/S 766 mmHg 40%
    12:00 -3°C° 0 mm 7 m/S 766 mmHg 37%
    13:00 -3°C° 0 mm 7 m/S 766 mmHg 38%
    14:00 -3°C° 0 mm 7 m/S 765 mmHg 38%
    15:00 -3°C° 0 mm 7 m/S 765 mmHg 39%
    16:00 -4°C° 0 mm 6 m/S 764 mmHg 42%
    17:00 -5°C° 0 mm 6 m/S 764 mmHg 45%
    18:00 -5°C° 0 mm 6 m/S 764 mmHg 48%
    19:00 -6°C° 0 mm 5 m/S 764 mmHg 49%
    20:00 -6°C° 0 mm 5 m/S 764 mmHg 50%
    21:00 -6°C° 0 mm 5 m/S 764 mmHg 51%
    22:00 -6°C° 0 mm 5 m/S 764 mmHg 52%
    23:00 -5°C° 0 mm 4 m/S 764 mmHg 53%

    28 Februar, Mittwoch

    Zeit Temperatur Niederschläge Wind Luftdruck Luftfeuchtigkeit
    00:00 -7°C° 0 mm 4 m/S 764 mmHg 53%
    01:00 -7°C° 0 mm 4 m/S 763 mmHg 53%
    02:00 -7°C° 0 mm 4 m/S 763 mmHg 52%
    03:00 -7°C° 0 mm 4 m/S 763 mmHg 52%
    04:00 -7°C° 0 mm 4 m/S 763 mmHg 51%
    05:00 -7°C° 0 mm 4 m/S 762 mmHg 50%
    06:00 -8°C° 0 mm 4 m/S 762 mmHg 49%
    07:00 -7°C° 0 mm 4 m/S 762 mmHg 43%
    08:00 -5°C° 0 mm 4 m/S 762 mmHg 36%
    09:00 -5°C° 0 mm 4 m/S 763 mmHg 30%
    10:00 -5°C° 0 mm 5 m/S 762 mmHg 28%
    11:00 -5°C° 0 mm 6 m/S 762 mmHg 26%
    12:00 -4°C° 0 mm 6 m/S 762 mmHg 23%
    13:00 -4°C° 0 mm 7 m/S 762 mmHg 22%
    14:00 -4°C° 0 mm 7 m/S 761 mmHg 20%
    15:00 -5°C° 0 mm 8 m/S 761 mmHg 19%
    16:00 -6°C° 0 mm 8 m/S 761 mmHg 21%
    17:00 -7°C° 0 mm 8 m/S 761 mmHg 23%
    18:00 -9°C° 0 mm 9 m/S 761 mmHg 24%
    19:00 -9°C° 0 mm 9 m/S 761 mmHg 26%
    20:00 -9°C° 0 mm 9 m/S 761 mmHg 27%
    21:00 -9°C° 0 mm 10 m/S 760 mmHg 28%
    22:00 -9°C° 0 mm 9 m/S 760 mmHg 29%
    23:00 -10°C° 0 mm 9 m/S 759 mmHg 30%

    1 März, Donnerstag

    Zeit Temperatur Niederschläge Wind Luftdruck Luftfeuchtigkeit
    00:00 -10°C° 0 mm 9 m/S 759 mmHg 31%
    01:00 -10°C° 0 mm 9 m/S 758 mmHg 32%
    02:00 -10°C° 0 mm 9 m/S 758 mmHg 34%
    03:00 -11°C° 0 mm 9 m/S 757 mmHg 35%
    04:00 -12°C° 0 mm 10 m/S 756 mmHg 38%
    05:00 -12°C° 0 mm 10 m/S 756 mmHg 40%
    06:00 -12°C° 0 mm 10 m/S 755 mmHg 43%
    07:00 -12°C° 0 mm 10 m/S 754 mmHg 42%
    08:00 -11°C° 0 mm 11 m/S 754 mmHg 41%
    09:00 -11°C° 0 mm 11 m/S 753 mmHg 40%
    10:00 -9°C° 0 mm 11 m/S 752 mmHg 39%
    11:00 -8°C° 0 mm 10 m/S 752 mmHg 39%
    12:00 -7°C° 0 mm 10 m/S 751 mmHg 38%
    13:00 -7°C° 0 mm 10 m/S 750 mmHg 45%
    14:00 -7°C° 0 mm 11 m/S 749 mmHg 51%
    15:00 -7°C° 0 mm 11 m/S 748 mmHg 57%
    16:00 -7°C° 0,3 mm 11 m/S 748 mmHg 66%
    17:00 -8°C° 0,3 mm 11 m/S 747 mmHg 75%
    18:00 -8°C° 0,3 mm 12 m/S 746 mmHg 84%
    19:00 -8°C° 1 mm 12 m/S 745 mmHg 88%
    20:00 -8°C° 1 mm 12 m/S 744 mmHg 91%
    21:00 -8°C° 1 mm 12 m/S 743 mmHg 94%
    22:00 -7°C° 1,1 mm 12 m/S 742 mmHg 94%
    23:00 -6°C° 1,1 mm 12 m/S 741 mmHg 94%
    Mehr zeigen